Date String (YYYY-MM-DD hh:mm:ss) UTC,Instrument flags,Ambient pressure (hPa),Sample flow (lpm),Bypass flow (lpm),Sample temperature (°C),Ambient temperature (°C),ASC tube jacket temperature (°C),LED temperature (°C),Box temperature (°C),Sample RH (%),Span deviation,Mass concentration (μg/m³),Mass concentration (μg/m³),Mass concentration (μg/m³)
DateTimeUTC,F1_M11,P_M11,Q1_M11,Q2_M11,T1_M11,T2_M11,T3_M11,T4_M11,T5_M11,U1_M11,ZSPAN_M11,X0_M11,X2_M11,X1_M11
2022-02-10 20:00:00,,0822.4,4.99,0.00,26.0,25.4,00.0,34.8,27.9,14.2,0000.0,0012.00,0004.62,0003.78
2022-02-10 20:01:00,,0822.4,5.02,0.00,26.0,25.4,00.0,34.8,27.9,14.7,0000.0,0011.53,0004.61,0003.77
2022-02-10 20:02:00,,0822.3,4.98,0.00,26.1,25.4,00.0,34.8,28.0,14.3,0000.0,0011.58,0004.66,0003.80
2022-02-10 20:03:00,,0822.3,4.99,0.00,26.1,25.5,00.0,34.8,28.0,14.3,0000.0,0011.69,0004.73,0003.85
2022-02-10 20:04:00,,0822.3,5.01,0.00,26.1,25.5,00.0,34.9,28.0,14.2,0000.0,0011.60,0004.83,0003.93
2022-02-10 20:05:00,,0822.3,5.01,0.00,26.2,25.5,00.0,34.9,28.0,14.4,0000.0,0011.80,0004.88,0004.01
2022-02-10 20:06:00,,0822.4,4.99,0.00,26.2,25.5,00.0,34.9,28.1,14.1,0000.0,0012.01,0004.99,0004.12
2022-02-10 20:07:00,,0822.3,5.00,0.00,26.2,25.6,00.0,35.0,28.1,14.5,0000.0,0012.25,0005.10,0004.22
2022-02-10 20:08:00,,0822.3,5.00,0.00,26.2,25.6,00.0,35.0,28.1,14.4,0000.0,0012.50,0005.25,0004.34
2022-02-10 20:09:00,,0822.3,5.02,0.00,26.2,25.6,00.0,35.0,28.1,14.5,0000.0,0012.76,0005.41,0004.48
2022-02-10 20:10:00,,0822.4,4.98,0.00,26.3,25.6,00.0,35.0,28.1,14.4,0000.0,0012.87,0005.52,0004.61
2022-02-10 20:11:00,,0822.3,5.00,0.00,26.3,25.6,00.0,35.0,28.2,14.2,0000.0,0012.28,0005.68,0004.72
2022-02-10 20:12:00,,0822.3,5.02,0.00,26.3,25.7,00.0,35.1,28.2,14.3,0000.0,0012.19,0005.77,0004.79
2022-02-10 20:13:00,,0822.3,4.99,0.00,26.3,25.7,00.0,35.1,28.2,14.5,0000.0,0012.12,0005.82,0004.84
2022-02-10 20:14:00,,0822.3,5.01,0.00,26.4,25.7,00.0,35.1,28.3,14.5,0000.0,0011.39,0005.81,0004.86
2022-02-10 20:15:00,,0822.3,4.99,0.00,26.4,25.7,00.0,35.2,28.3,14.4,0000.0,0011.35,0005.85,0004.91
2022-02-10 20:16:00,,0822.3,5.02,0.00,26.4,25.7,00.0,35.2,28.3,14.3,0000.0,0011.37,0005.97,0004.97
2022-02-10 20:17:00,,0822.3,4.99,0.00,26.5,25.8,00.0,35.2,28.3,14.4,0000.0,0011.25,0006.06,0005.04
2022-02-10 20:18:00,,0822.4,5.00,0.00,26.5,25.8,00.0,35.2,28.4,14.3,0000.0,0011.86,0006.12,0005.08
2022-02-10 20:19:00,,0822.3,5.02,0.00,26.5,25.8,00.0,35.3,28.4,14.3,0000.0,0013.33,0006.20,0005.14
2022-02-10 20:20:00,,0822.3,5.00,0.00,26.5,25.8,00.0,35.3,28.4,14.0,0000.0,0013.49,0006.30,0005.20
2022-02-10 20:21:00,,0822.2,4.99,0.00,26.5,25.9,00.0,35.3,28.4,14.0,0000.0,0013.61,0006.37,0005.26
2022-02-10 20:22:00,,0822.1,5.01,0.00,26.6,25.9,00.0,35.3,28.5,13.9,0000.0,0013.80,0006.42,0005.31
2022-02-10 20:23:00,,0822.1,5.01,0.00,26.6,25.9,00.0,35.4,28.5,13.7,0000.0,0014.72,0006.48,0005.34
2022-02-10 20:24:00,,0822.1,5.00,0.00,26.6,25.9,00.0,35.4,28.5,13.7,0000.0,0015.45,0006.54,0005.36
2022-02-10 20:25:00,,0822.1,5.00,0.00,26.6,25.9,00.0,35.4,28.5,13.8,0000.0,0015.65,0006.63,0005.41
2022-02-10 20:26:00,,0822.1,5.01,0.00,26.6,25.9,00.0,35.4,28.5,13.7,0000.0,0015.75,0006.70,0005.45
2022-02-10 20:27:00,,0822.1,4.98,0.00,26.6,25.9,00.0,35.5,28.5,14.0,0000.0,0015.85,0006.77,0005.49
2022-02-10 20:28:00,,0822.0,5.02,0.00,26.6,25.9,00.0,35.5,28.6,14.1,0000.0,0015.89,0006.84,0005.54
2022-02-10 20:29:00,,0821.9,4.99,0.00,26.7,26.0,00.0,35.5,28.6,14.4,0000.0,0015.38,0006.90,0005.61
2022-02-10 20:30:00,,0821.8,4.99,0.00,26.7,26.0,00.0,35.5,28.6,14.3,0000.0,0014.19,0006.98,0005.67
2022-02-10 20:31:00,,0821.8,5.01,0.00,26.7,25.9,00.0,35.5,28.6,14.3,0000.0,0014.21,0006.99,0005.73
2022-02-10 20:32:00,,0821.9,5.00,0.00,26.7,25.9,00.0,35.5,28.6,14.3,0000.0,0014.30,0007.03,0005.76
2022-02-10 20:33:00,,0822.2,4.99,0.00,26.7,26.0,00.0,35.5,28.6,14.2,0000.0,0015.27,0007.12,0005.82
2022-02-10 20:34:00,,0822.0,5.01,0.00,26.7,26.0,00.0,35.5,28.6,14.1,0000.0,0015.43,0007.17,0005.88
2022-02-10 20:35:00,,0821.8,4.99,0.00,26.7,26.0,00.0,35.5,28.6,14.0,0000.0,0014.98,0007.28,0005.95
2022-02-10 20:36:00,,0821.8,5.00,0.00,26.7,26.1,00.0,35.6,28.6,13.8,0000.0,0016.00,0007.38,0006.01
2022-02-10 20:37:00,,0821.8,5.00,0.00,26.7,26.1,00.0,35.6,28.6,13.8,0000.0,0017.22,0007.45,0006.05
2022-02-10 20:38:00,,0821.8,4.99,0.00,26.8,26.1,00.0,35.6,28.6,13.8,0000.0,0017.85,0007.49,0006.09
2022-02-10 20:39:00,,0821.7,5.02,0.00,26.8,26.1,00.0,35.6,28.7,13.7,0000.0,0018.00,0007.49,0006.09
2022-02-10 20:40:00,,0821.7,4.99,0.00,26.8,26.2,00.0,35.6,28.7,13.4,0000.0,0017.94,0007.50,0006.06
2022-02-10 20:41:00,,0821.7,5.01,0.00,26.8,26.2,00.0,35.6,28.7,13.5,0000.0,0018.67,0007.52,0006.03
2022-02-10 20:42:00,,0821.7,5.00,0.00,26.8,26.2,00.0,35.7,28.7,13.6,0000.0,0019.22,0007.65,0006.03
2022-02-10 20:43:00,,0821.7,5.01,0.00,26.9,26.2,00.0,35.7,28.8,13.6,0000.0,0019.81,0007.71,0006.05
2022-02-10 20:44:00,,0821.7,5.00,0.00,26.9,26.3,00.0,35.7,28.8,13.7,0000.0,0019.08,0007.72,0006.05
2022-02-10 20:45:00,,0821.7,5.00,0.00,26.9,26.3,00.0,35.7,28.8,13.1,0000.0,0019.11,0007.72,0006.04
2022-02-10 20:46:00,,0821.7,5.01,0.00,26.9,26.3,00.0,35.7,28.8,12.9,0000.0,0019.31,0007.64,0005.97
2022-02-10 20:47:00,,0821.7,5.00,0.00,27.0,26.3,00.0,35.8,28.9,13.1,0000.0,0018.47,0007.53,0005.92
2022-02-10 20:48:00,,0821.7,4.98,0.00,27.0,26.4,00.0,35.8,28.9,13.2,0000.0,0017.44,0007.49,0005.87
2022-02-10 20:49:00,,0821.6,5.01,0.00,27.0,26.4,00.0,35.8,28.9,12.9,0000.0,0017.03,0007.37,0005.80
2022-02-10 20:50:00,,0821.5,4.99,0.00,27.0,26.4,00.0,35.8,29.0,12.9,0000.0,0016.78,0007.25,0005.73
2022-02-10 20:51:00,,0821.4,5.02,0.00,27.0,26.4,00.0,35.9,29.0,11.8,0000.0,0016.50,0007.05,0005.60
2022-02-10 20:52:00,,0821.5,4.99,0.00,27.1,26.4,00.0,35.9,29.0,11.5,0000.0,0015.65,0006.69,0005.35
2022-02-10 20:53:00,,0821.4,5.00,0.00,27.1,26.4,00.0,35.9,29.0,12.0,0000.0,0014.75,0006.33,0005.14
2022-02-10 20:54:00,,0821.4,5.00,0.00,27.1,26.5,00.0,35.9,29.0,12.5,0000.0,0014.03,0006.11,0004.99
2022-02-10 20:55:00,,0821.4,5.01,0.00,27.1,26.5,00.0,35.9,29.0,10.8,0000.0,0013.23,0005.75,0004.72
2022-02-10 20:56:00,,0821.4,4.99,0.00,27.1,26.5,00.0,36.0,29.0,10.7,0000.0,0011.66,0005.35,0004.41
2022-02-10 20:57:00,,0821.4,5.02,0.00,27.1,26.5,00.0,36.0,29.0,11.8,0000.0,0010.84,0005.07,0004.21
2022-02-10 20:58:00,,0821.4,5.00,0.00,27.1,26.5,00.0,36.0,29.0,11.1,0000.0,0010.58,0004.85,0004.03
2022-02-10 20:59:00,,0821.4,5.01,0.00,27.1,26.5,00.0,36.0,29.0,09.9,0000.0,0009.88,0004.42,0003.73
